,,Stat6,,Stat2,,Stat8,,Stat9,,Stat10,,Wind1,,Wind1,
time,status,PA1M_AVG,status,PR1M_SUM,status,RH1M_AVG,status,SR1M_AVG,status,TA1M_AVG,status,W1dAve1m,status,W1sAve1m,
2004-05-21, 00:00:00,VALID,919.499,VALID,0,VALID,98.295,VALID,-0.0339617,VALID,19.1412,VALID,177,VALID,0.0652778,
2004-05-21, 00:01:00,VALID,919.485,VALID,0,VALID,98.2747,VALID,0,VALID,19.0866,VALID,177,VALID,0.00685976,
2004-05-21, 00:02:00,VALID,919.492,VALID,0,VALID,98.412,VALID,-0.0169808,VALID,19.0379,VALID,177,VALID,0.0184832,
2004-05-21, 00:03:00,VALID,919.481,VALID,0,VALID,99.3479,VALID,0,VALID,19.1059,VALID,177,VALID,0,
2004-05-21, 00:04:00,VALID,919.497,VALID,0,VALID,99.723,VALID,-0.0169808,VALID,19.2001,VALID,177,VALID,0,
2004-05-21, 00:05:00,VALID,919.495,VALID,0,VALID,99.7141,VALID,-0.0339617,VALID,19.2383,VALID,177,VALID,0,
2004-05-21, 00:06:00,VALID,919.487,VALID,0,VALID,99.6684,VALID,-0.0339617,VALID,19.2681,VALID,177,VALID,0,
2004-05-21, 00:07:00,VALID,919.477,VALID,0,VALID,99.6811,VALID,-0.0169808,VALID,19.3001,VALID,177,VALID,0,
2004-05-21, 00:08:00,VALID,919.449,VALID,0,VALID,99.648,VALID,-0.0169808,VALID,19.3386,VALID,177,VALID,0,
2004-05-21, 00:09:00,VALID,919.437,VALID,0,VALID,99.5018,VALID,-0.0509425,VALID,19.3548,VALID,177,VALID,0,
2004-05-21, 00:10:00,VALID,919.406,VALID,0,VALID,98.9156,VALID,-0.0509425,VALID,19.3096,VALID,177,VALID,0,
2004-05-21, 00:11:00,VALID,919.356,VALID,0,VALID,97.766,VALID,-0.0169808,VALID,19.171,VALID,171,VALID,0.266959,
2004-05-21, 00:12:00,VALID,919.325,VALID,0,VALID,96.5059,VALID,0,VALID,18.9282,VALID,89,VALID,0.64939,
2004-05-21, 00:13:00,VALID,919.298,VALID,0,VALID,97.0056,VALID,-0.0509425,VALID,18.8353,VALID,79,VALID,0.516897,
2004-05-21, 00:14:00,VALID,919.266,VALID,0,VALID,97.4977,VALID,-0.0339617,VALID,18.7901,VALID,79,VALID,0.175877,
2004-05-21, 00:15:00,VALID,919.243,VALID,0,VALID,97.9148,VALID,-0.0169808,VALID,18.7707,VALID,79,VALID,0,
2004-05-21, 00:16:00,VALID,919.223,VALID,0,VALID,98.2683,VALID,-0.0169808,VALID,18.7608,VALID,79,VALID,0,
2004-05-21, 00:17:00,VALID,919.217,VALID,0,VALID,98.3828,VALID,-0.0169808,VALID,18.764,VALID,79,VALID,0,
2004-05-21, 00:18:00,VALID,919.205,VALID,0,VALID,98.2912,VALID,-0.0339617,VALID,18.735,VALID,79,VALID,0,
2004-05-21, 00:19:00,VALID,919.188,VALID,0,VALID,98.6511,VALID,-0.0509425,VALID,18.7225,VALID,79,VALID,0,
2004-05-21, 00:20:00,VALID,919.17,VALID,0,VALID,98.4286,VALID,-0.101885,VALID,18.7106,VALID,79,VALID,0.307664,
2004-05-21, 00:21:00,VALID,919.143,VALID,0,VALID,98.4324,VALID,-0.101885,VALID,18.6328,VALID,79,VALID,0.489462,
2004-05-21, 00:22:00,VALID,919.126,VALID,0,VALID,98.4527,VALID,-0.0679233,VALID,18.5777,VALID,79,VALID,0.787348,
2004-05-21, 00:23:00,VALID,919.116,VALID,0,VALID,99.5677,VALID,-0.0509425,VALID,18.643,VALID,79,VALID,0.95348,
2004-05-21, 00:24:00,VALID,919.093,VALID,0,VALID,100,VALID,-0.101885,VALID,18.797,VALID,88,VALID,0.976935,
2004-05-21, 00:25:00,VALID,919.1,VALID,0,VALID,100,VALID,-0.0849042,VALID,18.9363,VALID,97,VALID,0.961664,
2004-05-21, 00:26:00,VALID,919.087,VALID,0,VALID,100,VALID,-0.101885,VALID,18.9946,VALID,98,VALID,0.768359,
2004-05-21, 00:27:00,VALID,919.084,VALID,0,VALID,100,VALID,-0.0509425,VALID,19.0075,VALID,97,VALID,0.716206,
2004-05-21, 00:28:00,VALID,919.075,VALID,0,VALID,99.6109,VALID,-0.0679233,VALID,18.8556,VALID,83,VALID,0.797805,
2004-05-21, 00:29:00,VALID,919.062,VALID,0,VALID,98.6091,VALID,-0.0339617,VALID,18.6296,VALID,79,VALID,0.768532,
2004-05-21, 00:30:00,VALID,919.046,VALID,0,VALID,98.5379,VALID,-0.101885,VALID,18.527,VALID,79,VALID,0.723758,
2004-05-21, 00:31:00,VALID,919.046,VALID,0,VALID,98.6282,VALID,-0.0169808,VALID,18.4779,VALID,73,VALID,0.848544,
2004-05-21, 00:32:00,VALID,919.045,VALID,0,VALID,99.4242,VALID,-0.0679233,VALID,18.5365,VALID,69,VALID,0.719131,
2004-05-21, 00:33:00,VALID,919.048,VALID,0,VALID,99.6824,VALID,-0.0679233,VALID,18.5819,VALID,69,VALID,0.414063,
2004-05-21, 00:34:00,VALID,919.041,VALID,0,VALID,99.7396,VALID,-0.0339617,VALID,18.6033,VALID,69,VALID,0.0865091,
2004-05-21, 00:35:00,VALID,919.009,VALID,0,VALID,99.4268,VALID,0,VALID,18.5703,VALID,69,VALID,0,
2004-05-21, 00:36:00,VALID,918.984,VALID,0,VALID,99.1356,VALID,0.0339617,VALID,18.5279,VALID,69,VALID,0,
2004-05-21, 00:37:00,VALID,918.952,VALID,0,VALID,98.8049,VALID,0.0339617,VALID,18.4701,VALID,69,VALID,0,
2004-05-21, 00:38:00,VALID,918.918,VALID,0,VALID,98.4158,VALID,0.0169808,VALID,18.4283,VALID,69,VALID,0.125178,
2004-05-21, 00:39:00,VALID,918.909,VALID,0,VALID,97.2587,VALID,0.0169808,VALID,18.2319,VALID,69,VALID,0.419695,
2004-05-21, 00:40:00,VALID,918.89,VALID,0,VALID,97.6389,VALID,0.0169808,VALID,18.1708,VALID,69,VALID,0.237926,
2004-05-21, 00:41:00,VALID,918.877,VALID,0,VALID,97.986,VALID,0,VALID,18.1544,VALID,69,VALID,0.149239,
2004-05-21, 00:42:00,VALID,918.861,VALID,0,VALID,98.3217,VALID,0,VALID,18.18,VALID,69,VALID,0.00763081,
2004-05-21, 00:43:00,VALID,918.815,VALID,0,VALID,99.0885,VALID,0,VALID,18.2969,VALID,64,VALID,0.26087,
2004-05-21, 00:44:00,VALID,918.783,VALID,0,VALID,99.7269,VALID,0.0169808,VALID,18.4226,VALID,356,VALID,0.584162,
2004-05-21, 00:45:00,VALID,918.751,VALID,0,VALID,99.9397,VALID,0.0169808,VALID,18.5323,VALID,320,VALID,0.637173,
2004-05-21, 00:46:00,VALID,918.719,VALID,0,VALID,99.9914,VALID,0.0169808,VALID,18.6222,VALID,299,VALID,0.756541,
2004-05-21, 00:47:00,VALID,918.711,VALID,0,VALID,100,VALID,0.0169808,VALID,18.6967,VALID,296,VALID,0.452398,
2004-05-21, 00:48:00,VALID,918.726,VALID,0,VALID,100,VALID,0.0169808,VALID,18.7391,VALID,286,VALID,0.642857,
2004-05-21, 00:49:00,VALID,918.722,VALID,0,VALID,100,VALID,0,VALID,18.7772,VALID,286,VALID,0.390816,
2004-05-21, 00:50:00,VALID,918.731,VALID,0,VALID,100,VALID,0,VALID,18.7744,VALID,274,VALID,0.485899,
2004-05-21, 00:51:00,VALID,918.738,VALID,0,VALID,100,VALID,0.0169808,VALID,18.7548,VALID,265,VALID,0.527043,
2004-05-21, 00:52:00,VALID,918.739,VALID,0,VALID,100,VALID,0,VALID,18.7585,VALID,264,VALID,0.464666,
2004-05-21, 00:53:00,VALID,918.737,VALID,0,VALID,100,VALID,0,VALID,18.7583,VALID,264,VALID,0.460938,
2004-05-21, 00:54:00,VALID,918.745,VALID,0,VALID,100,VALID,0,VALID,18.762,VALID,264,VALID,0.478237,
2004-05-21, 00:55:00,VALID,918.738,VALID,0,VALID,100,VALID,0,VALID,18.7779,VALID,264,VALID,0.27106,
2004-05-21, 00:56:00,VALID,918.716,VALID,0,VALID,99.7113,VALID,0,VALID,18.6485,VALID,264,VALID,0.109197,
2004-05-21, 00:57:00,VALID,918.682,VALID,0,VALID,99.7243,VALID,0.0169808,VALID,18.5805,VALID,264,VALID,0.142969,
2004-05-21, 00:58:00,VALID,918.647,VALID,0,VALID,99.8337,VALID,0,VALID,18.5872,VALID,264,VALID,0,
2004-05-21, 00:59:00,VALID,918.637,VALID,0,VALID,98.9168,VALID,0,VALID,18.4226,VALID,264,VALID,0.209339,
2004-05-21, 01:00:00,VALID,918.646,VALID,0,VALID,98.6485,VALID,0,VALID,18.2547,VALID,264,VALID,0.0605903,
2004-05-21, 01:01:00,VALID,918.657,VALID,0,VALID,98.8876,VALID,0.0169808,VALID,18.2257,VALID,264,VALID,0.110677,
2004-05-21, 01:02:00,VALID,918.653,VALID,0,VALID,98.7503,VALID,0,VALID,18.1713,VALID,264,VALID,0.00381098,
2004-05-21, 01:03:00,VALID,918.66,VALID,0,VALID,99.0059,VALID,0,VALID,18.1385,VALID,264,VALID,0.110978,
2004-05-21, 01:04:00,VALID,918.641,VALID,0,VALID,99.3721,VALID,0,VALID,18.1805,VALID,264,VALID,0.17488,
2004-05-21, 01:05:00,VALID,918.618,VALID,0,VALID,99.5692,VALID,-0.0169808,VALID,18.2035,VALID,264,VALID,0.0583212,
2004-05-21, 01:06:00,VALID,918.606,VALID,0,VALID,99.6455,VALID,-0.0169808,VALID,18.2294,VALID,264,VALID,0.351563,
2004-05-21, 01:07:00,VALID,918.601,VALID,0,VALID,99.7701,VALID,-0.0169808,VALID,18.2453,VALID,264,VALID,0.30888,
2004-05-21, 01:08:00,VALID,918.61,VALID,0,VALID,99.779,VALID,0,VALID,18.2388,VALID,264,VALID,0.303977,
2004-05-21, 01:09:00,VALID,918.629,VALID,0,VALID,100,VALID,-0.0169808,VALID,18.3161,VALID,264,VALID,0.389323,
2004-05-21, 01:10:00,VALID,918.651,VALID,0,VALID,100,VALID,-0.0169808,VALID,18.388,VALID,249,VALID,0.664789,
2004-05-21, 01:11:00,VALID,918.65,VALID,0,VALID,100,VALID,-0.0169808,VALID,18.4263,VALID,248,VALID,0.658794,
2004-05-21, 01:12:00,VALID,918.632,VALID,0,VALID,100,VALID,-0.0169808,VALID,18.4389,VALID,248,VALID,0.133371,
2004-05-21, 01:13:00,VALID,918.599,VALID,0,VALID,100,VALID,-0.0339617,VALID,18.4459,VALID,248,VALID,0.0611979,
2004-05-21, 01:14:00,VALID,918.572,VALID,0,VALID,100,VALID,-0.0339617,VALID,18.4491,VALID,284,VALID,0.157493,
2004-05-21, 01:15:00,VALID,918.546,VALID,0,VALID,100,VALID,-0.0169808,VALID,18.4129,VALID,291,VALID,0,
2004-05-21, 01:16:00,VALID,918.535,VALID,0,VALID,100,VALID,-0.0509425,VALID,18.2815,VALID,290,VALID,0.103338,
2004-05-21, 01:17:00,VALID,918.523,VALID,0,VALID,99.9329,VALID,-0.0169808,VALID,18.2199,VALID,168,VALID,0.658156,
2004-05-21, 01:18:00,VALID,918.515,VALID,0,VALID,99.8934,VALID,-0.0339617,VALID,18.159,VALID,163,VALID,0.283794,
2004-05-21, 01:19:00,VALID,918.488,VALID,0,VALID,99.896,VALID,-0.0679233,VALID,18.1233,VALID,152,VALID,0.476563,
2004-05-21, 01:20:00,VALID,918.473,VALID,0,VALID,99.8909,VALID,-0.0679233,VALID,18.062,VALID,138,VALID,0.318407,
2004-05-21, 01:21:00,VALID,918.469,VALID,0,VALID,99.9644,VALID,-0.0169808,VALID,18.0194,VALID,136,VALID,0.220898,
2004-05-21, 01:22:00,VALID,918.484,VALID,0,VALID,100,VALID,-0.0339617,VALID,17.9908,VALID,136,VALID,0.16654,
2004-05-21, 01:23:00,VALID,918.511,VALID,0,VALID,99.9715,VALID,-0.0169808,VALID,17.9617,VALID,136,VALID,0,
2004-05-21, 01:24:00,VALID,918.53,VALID,0,VALID,99.9868,VALID,-0.0339617,VALID,17.9099,VALID,136,VALID,0.143056,
2004-05-21, 01:25:00,VALID,918.552,VALID,0,VALID,100,VALID,-0.0339617,VALID,17.8939,VALID,136,VALID,0.20991,
2004-05-21, 01:26:00,VALID,918.561,VALID,0,VALID,100,VALID,-0.0169808,VALID,17.9198,VALID,136,VALID,0.518682,
2004-05-21, 01:27:00,VALID,918.562,VALID,0,VALID,99.998,VALID,-0.0339617,VALID,17.8836,VALID,136,VALID,0.425881,
2004-05-21, 01:28:00,VALID,918.559,VALID,0,VALID,100,VALID,-0.0169808,VALID,17.8322,VALID,130,VALID,0.349702,
2004-05-21, 01:29:00,VALID,918.569,VALID,0,VALID,100,VALID,-0.0339617,VALID,17.8232,VALID,128,VALID,0.318638,
2004-05-21, 01:30:00,VALID,918.575,VALID,0,VALID,100,VALID,-0.0339617,VALID,17.8485,VALID,128,VALID,0.207775,
2004-05-21, 01:31:00,VALID,918.568,VALID,0,VALID,100,VALID,-0.0169808,VALID,17.8873,VALID,128,VALID,0.0924162,
2004-05-21, 01:32:00,VALID,918.562,VALID,0,VALID,100,VALID,-0.0339617,VALID,17.9163,VALID,128,VALID,0,
2004-05-21, 01:33:00,VALID,918.564,VALID,0,VALID,100,VALID,0,VALID,17.9258,VALID,128,VALID,0,
2004-05-21, 01:34:00,VALID,918.578,VALID,0,VALID,100,VALID,0.0509425,VALID,17.9608,VALID,128,VALID,0,
2004-05-21, 01:35:00,VALID,918.603,VALID,0,VALID,100,VALID,0.0849042,VALID,18.009,VALID,128,VALID,0,
2004-05-21, 01:36:00,VALID,918.63,VALID,0,VALID,100,VALID,0.101885,VALID,18.0249,VALID,128,VALID,0,
2004-05-21, 01:37:00,VALID,918.648,VALID,0,VALID,99.9494,VALID,0.0509425,VALID,18.0475,VALID,128,VALID,0.187691,
2004-05-21, 01:38:00,VALID,918.654,VALID,0,VALID,99.7269,VALID,0.101885,VALID,18.1058,VALID,128,VALID,0.00799006,
2004-05-21, 01:39:00,VALID,918.656,VALID,0,VALID,99.0466,VALID,0.101885,VALID,18.0708,VALID,127,VALID,0.447443,
2004-05-21, 01:40:00,VALID,918.667,VALID,0,VALID,98.8762,VALID,0.0679233,VALID,18.0475,VALID,124,VALID,0.618902,
2004-05-21, 01:41:00,VALID,918.667,VALID,0,VALID,98.5773,VALID,0.0679233,VALID,18.0217,VALID,124,VALID,0.417696,
2004-05-21, 01:42:00,VALID,918.663,VALID,0,VALID,98.1742,VALID,0.0509425,VALID,17.9739,VALID,124,VALID,0.577753,
2004-05-21, 01:43:00,VALID,918.658,VALID,0,VALID,98.0242,VALID,0.0849042,VALID,17.9219,VALID,124,VALID,0.342882,
2004-05-21, 01:44:00,VALID,918.654,VALID,0,VALID,98.0623,VALID,0.0849042,VALID,17.8707,VALID,124,VALID,0.0133929,
2004-05-21, 01:45:00,VALID,918.627,VALID,0,VALID,98.3256,VALID,0.0509425,VALID,17.8416,VALID,124,VALID,0.360795,
2004-05-21, 01:46:00,VALID,918.611,VALID,0,VALID,98.4781,VALID,0.0849042,VALID,17.8287,VALID,127,VALID,0.416788,
2004-05-21, 01:47:00,VALID,918.591,VALID,0,VALID,98.4998,VALID,0.0679233,VALID,17.8094,VALID,128,VALID,0.518895,
2004-05-21, 01:48:00,VALID,918.567,VALID,0,VALID,98.6371,VALID,0.0679233,VALID,17.7902,VALID,128,VALID,0.487866,
2004-05-21, 01:49:00,VALID,918.541,VALID,0,VALID,98.5481,VALID,0.0509425,VALID,17.7773,VALID,128,VALID,0.38125,
2004-05-21, 01:50:00,VALID,918.542,VALID,0,VALID,98.2849,VALID,-0.0509425,VALID,17.73,VALID,125,VALID,0.488186,
2004-05-21, 01:51:00,VALID,918.531,VALID,0,VALID,98.5074,VALID,-0.0679233,VALID,17.6885,VALID,120,VALID,0.78853,
2004-05-21, 01:52:00,VALID,918.528,VALID,0,VALID,99.058,VALID,-0.0339617,VALID,17.73,VALID,120,VALID,0.888765,
2004-05-21, 01:53:00,VALID,918.54,VALID,0,VALID,99.5781,VALID,-0.0339617,VALID,17.7812,VALID,117,VALID,0.92016,
2004-05-21, 01:54:00,VALID,918.548,VALID,0,VALID,99.5616,VALID,-0.0339617,VALID,17.8621,VALID,115,VALID,0.590588,
2004-05-21, 01:55:00,VALID,918.534,VALID,0,VALID,98.9842,VALID,-0.0169808,VALID,17.8656,VALID,112,VALID,0.324574,
2004-05-21, 01:56:00,VALID,918.516,VALID,0,VALID,98.618,VALID,-0.0679233,VALID,17.84,VALID,112,VALID,0.0465116,
2004-05-21, 01:57:00,VALID,918.513,VALID,0,VALID,98.2149,VALID,-0.0509425,VALID,17.7881,VALID,112,VALID,0,
2004-05-21, 01:58:00,VALID,918.487,VALID,0,VALID,97.6147,VALID,-0.0679233,VALID,17.7171,VALID,112,VALID,0,
2004-05-21, 01:59:00,VALID,918.446,VALID,0,VALID,97.7406,VALID,-0.0509425,VALID,17.7074,VALID,112,VALID,0.0130208,
2004-05-21, 02:00:00,VALID,918.416,VALID,0,VALID,98.1552,VALID,-0.0509425,VALID,17.7724,VALID,112,VALID,0.000372024,
2004-05-21, 02:01:00,VALID,918.394,VALID,0,VALID,98.3815,VALID,-0.0679233,VALID,17.837,VALID,112,VALID,0.0630208,
2004-05-21, 02:02:00,VALID,918.382,VALID,0,VALID,98.2582,VALID,-0.0509425,VALID,17.8561,VALID,112,VALID,0.157965,
2004-05-21, 02:03:00,VALID,918.406,VALID,0,VALID,97.8703,VALID,-0.0679233,VALID,17.8397,VALID,93,VALID,0.447088,
2004-05-21, 02:04:00,VALID,918.435,VALID,0,VALID,97.5105,VALID,0,VALID,17.8098,VALID,62,VALID,0.517045,
2004-05-21, 02:05:00,VALID,918.451,VALID,0,VALID,97.1938,VALID,0.0169808,VALID,17.7579,VALID,40,VALID,0.655878,
2004-05-21, 02:06:00,VALID,918.464,VALID,0,VALID,97.5155,VALID,0.0679233,VALID,17.7351,VALID,29,VALID,0.61701,
2004-05-21, 02:07:00,VALID,918.487,VALID,0,VALID,97.8449,VALID,0.0849042,VALID,17.7381,VALID,354,VALID,0.667874,
2004-05-21, 02:08:00,VALID,918.484,VALID,0,VALID,98.6651,VALID,0.0339617,VALID,17.8905,VALID,304,VALID,0.464453,
2004-05-21, 02:09:00,VALID,918.462,VALID,0,VALID,98.6981,VALID,0.0509425,VALID,18.032,VALID,300,VALID,0.191939,
2004-05-21, 02:10:00,VALID,918.459,VALID,0,VALID,97.9199,VALID,0.0679233,VALID,18.0484,VALID,300,VALID,0.15997,
2004-05-21, 02:11:00,VALID,918.432,VALID,0,VALID,97.5054,VALID,0.0509425,VALID,18.0546,VALID,300,VALID,0.0499637,
2004-05-21, 02:12:00,VALID,918.428,VALID,0,VALID,97.1468,VALID,0.0679233,VALID,18.0544,VALID,300,VALID,0,
2004-05-21, 02:13:00,VALID,918.436,VALID,0,VALID,97.1684,VALID,0.0679233,VALID,18.0675,VALID,300,VALID,0,
2004-05-21, 02:14:00,VALID,918.452,VALID,0,VALID,97.0603,VALID,0.101885,VALID,18.074,VALID,300,VALID,0,
2004-05-21, 02:15:00,VALID,918.45,VALID,0,VALID,96.6788,VALID,0.0679233,VALID,18.0611,VALID,300,VALID,0,
2004-05-21, 02:16:00,VALID,918.443,VALID,0,VALID,96.7271,VALID,0.0679233,VALID,18.0546,VALID,300,VALID,0,
2004-05-21, 02:17:00,VALID,918.424,VALID,0,VALID,96.9942,VALID,0.0509425,VALID,18.0966,VALID,300,VALID,0,
2004-05-21, 02:18:00,VALID,918.412,VALID,0,VALID,96.6915,VALID,0.101885,VALID,18.0998,VALID,293,VALID,0.258557,
2004-05-21, 02:19:00,VALID,918.39,VALID,0,VALID,96.6381,VALID,0.0339617,VALID,18.1097,VALID,292,VALID,0,
2004-05-21, 02:20:00,VALID,918.356,VALID,0,VALID,96.0786,VALID,0.0339617,VALID,18.0834,VALID,292,VALID,0,
2004-05-21, 02:21:00,VALID,918.333,VALID,0,VALID,96.0685,VALID,0.0679233,VALID,18.0675,VALID,292,VALID,0,
2004-05-21, 02:22:00,VALID,918.303,VALID,0,VALID,96.4944,VALID,0.0679233,VALID,18.0772,VALID,292,VALID,0.420351,
2004-05-21, 02:23:00,VALID,918.288,VALID,0,VALID,97.2027,VALID,0.0679233,VALID,18.1508,VALID,272,VALID,0.531977,
2004-05-21, 02:24:00,VALID,918.273,VALID,0,VALID,97.7826,VALID,0.0679233,VALID,18.2838,VALID,261,VALID,0.580035,
2004-05-21, 02:25:00,VALID,918.244,VALID,0,VALID,97.7012,VALID,0.0679233,VALID,18.3647,VALID,261,VALID,0.202195,
2004-05-21, 02:26:00,VALID,918.236,VALID,0,VALID,97.0018,VALID,0.0509425,VALID,18.3585,VALID,262,VALID,0.0757631,
2004-05-21, 02:27:00,VALID,918.228,VALID,0,VALID,96.7004,VALID,0.0679233,VALID,18.3359,VALID,262,VALID,0.234193,
2004-05-21, 02:28:00,VALID,918.229,VALID,0,VALID,95.1249,VALID,0.101885,VALID,18.2483,VALID,262,VALID,0.0342685,
2004-05-21, 02:29:00,VALID,918.23,VALID,0,VALID,95.1351,VALID,0.0509425,VALID,18.1063,VALID,261,VALID,0,
2004-05-21, 02:30:00,VALID,918.23,VALID,0,VALID,95.8624,VALID,0.0169808,VALID,18.0871,VALID,261,VALID,0.00118886,
2004-05-21, 02:31:00,VALID,918.215,VALID,0,VALID,96.5415,VALID,0.0679233,VALID,18.0871,VALID,261,VALID,0.171224,
2004-05-21, 02:32:00,VALID,918.216,VALID,0,VALID,96.9865,VALID,0.0849042,VALID,18.0936,VALID,213,VALID,0.452217,
2004-05-21, 02:33:00,VALID,918.208,VALID,0,VALID,97.143,VALID,0.101885,VALID,18.0802,VALID,169,VALID,0.872768,
2004-05-21, 02:34:00,VALID,918.196,VALID,0,VALID,96.7081,VALID,0.0339617,VALID,18.0256,VALID,153,VALID,0.909979,
2004-05-21, 02:35:00,VALID,918.194,VALID,0,VALID,97.0056,VALID,-0.0509425,VALID,17.9589,VALID,130,VALID,1.04851,
2004-05-21, 02:36:00,VALID,918.172,VALID,0,VALID,97.7711,VALID,0,VALID,17.9843,VALID,133,VALID,1.47565,
2004-05-21, 02:37:00,VALID,918.146,VALID,0,VALID,98.0356,VALID,-0.0169808,VALID,18.0304,VALID,129,VALID,1.30504,
2004-05-21, 02:38:00,VALID,918.097,VALID,0,VALID,97.9759,VALID,0,VALID,18.023,VALID,121,VALID,0.918155,
2004-05-21, 02:39:00,VALID,918.043,VALID,0,VALID,98.2989,VALID,-0.0169808,VALID,18.0433,VALID,113,VALID,0.922676,
2004-05-21, 02:40:00,VALID,917.989,VALID,0,VALID,98.2543,VALID,-0.0509425,VALID,18.0592,VALID,75,VALID,0.398242,
2004-05-21, 02:41:00,VALID,917.929,VALID,0,VALID,97.6325,VALID,-0.0339617,VALID,18.0304,VALID,75,VALID,0.350675,
2004-05-21, 02:42:00,VALID,917.867,VALID,0,VALID,97.9809,VALID,0,VALID,18.0299,VALID,75,VALID,0.345486,
2004-05-21, 02:43:00,VALID,917.836,VALID,0,VALID,97.9225,VALID,-0.0509425,VALID,18.0532,VALID,72,VALID,0.435462,
2004-05-21, 02:44:00,VALID,917.822,VALID,0,VALID,98.0623,VALID,-0.0339617,VALID,18.0528,VALID,23,VALID,0.527261,
2004-05-21, 02:45:00,VALID,917.822,VALID,0,VALID,98.3332,VALID,0,VALID,18.0853,VALID,23,VALID,0.317522,
2004-05-21, 02:46:00,VALID,917.84,VALID,0,VALID,98.178,VALID,-0.0169808,VALID,18.0848,VALID,23,VALID,0.232701,
2004-05-21, 02:47:00,VALID,917.846,VALID,0,VALID,98.1653,VALID,-0.0169808,VALID,18.0977,VALID,23,VALID,0.230646,
2004-05-21, 02:48:00,VALID,917.833,VALID,0,VALID,98.2009,VALID,-0.0169808,VALID,18.1079,VALID,23,VALID,0.464026,
2004-05-21, 02:49:00,VALID,917.809,VALID,0,VALID,98.1539,VALID,-0.0509425,VALID,18.1178,VALID,23,VALID,0.56955,
2004-05-21, 02:50:00,VALID,917.783,VALID,0,VALID,97.9784,VALID,-0.0849042,VALID,18.0691,VALID,27,VALID,0.78457,
2004-05-21, 02:51:00,VALID,917.773,VALID,0,VALID,97.8411,VALID,-0.101885,VALID,18.0269,VALID,36,VALID,0.729833,
2004-05-21, 02:52:00,VALID,917.794,VALID,0,VALID,97.766,VALID,-0.101885,VALID,17.9758,VALID,39,VALID,0.951215,
2004-05-21, 02:53:00,VALID,917.825,VALID,0,VALID,97.8322,VALID,-0.0679233,VALID,17.9241,VALID,42,VALID,0.62571,
2004-05-21, 02:54:00,VALID,917.862,VALID,0,VALID,97.9174,VALID,-0.101885,VALID,17.8978,VALID,42,VALID,0.142442,
2004-05-21, 02:55:00,VALID,917.862,VALID,0,VALID,98.3497,VALID,-0.0509425,VALID,17.9013,VALID,42,VALID,0.346475,
2004-05-21, 02:56:00,VALID,917.851,VALID,0,VALID,98.6282,VALID,-0.101885,VALID,17.9697,VALID,42,VALID,0.365141,
2004-05-21, 02:57:00,VALID,917.839,VALID,0,VALID,98.3154,VALID,-0.0849042,VALID,17.9788,VALID,42,VALID,0.320694,
2004-05-21, 02:58:00,VALID,917.824,VALID,0,VALID,98.2467,VALID,-0.0849042,VALID,18.0053,VALID,100,VALID,0.684775,
2004-05-21, 02:59:00,VALID,917.806,VALID,0,VALID,98.2785,VALID,-0.0849042,VALID,18.008,VALID,136,VALID,0.927202,
2004-05-21, 03:00:00,VALID,917.818,VALID,0,VALID,98.1908,VALID,-0.0849042,VALID,17.9979,VALID,130,VALID,0.551781,
2004-05-21, 03:01:00,VALID,917.819,VALID,0,VALID,98.2683,VALID,-0.101885,VALID,17.9854,VALID,130,VALID,0.707775,
2004-05-21, 03:02:00,VALID,917.837,VALID,0,VALID,98.3942,VALID,-0.101885,VALID,17.9983,VALID,136,VALID,0.648777,
2004-05-21, 03:03:00,VALID,917.881,VALID,0,VALID,98.515,VALID,-0.101885,VALID,18.0046,VALID,151,VALID,0.430664,
2004-05-21, 03:04:00,VALID,917.918,VALID,0,VALID,98.6498,VALID,-0.0339617,VALID,18.0362,VALID,153,VALID,0.342297,
2004-05-21, 03:05:00,VALID,917.926,VALID,0,VALID,98.8037,VALID,0.0169808,VALID,18.0837,VALID,153,VALID,0.0552591,
2004-05-21, 03:06:00,VALID,917.904,VALID,0,VALID,98.7655,VALID,0.0169808,VALID,18.1293,VALID,153,VALID,0.00708576,
2004-05-21, 03:07:00,VALID,917.874,VALID,0,VALID,98.6714,VALID,0,VALID,18.181,VALID,153,VALID,0,
2004-05-21, 03:08:00,VALID,917.832,VALID,0,VALID,98.1971,VALID,0.0509425,VALID,18.1683,VALID,153,VALID,0,
2004-05-21, 03:09:00,VALID,917.813,VALID,0,VALID,98.1704,VALID,0,VALID,18.1683,VALID,153,VALID,0,
2004-05-21, 03:10:00,VALID,917.806,VALID,0,VALID,98.0216,VALID,0,VALID,18.1876,VALID,153,VALID,0,
2004-05-21, 03:11:00,VALID,917.797,VALID,0,VALID,97.6719,VALID,-0.0169808,VALID,18.1844,VALID,153,VALID,0,
2004-05-21, 03:12:00,VALID,917.769,VALID,0,VALID,97.4748,VALID,0.0509425,VALID,18.187,VALID,153,VALID,0,
2004-05-21, 03:13:00,VALID,917.736,VALID,0,VALID,97.6096,VALID,0,VALID,18.2427,VALID,154,VALID,0.372275,
2004-05-21, 03:14:00,VALID,917.694,VALID,0,VALID,97.7343,VALID,0,VALID,18.3363,VALID,153,VALID,0.161966,
2004-05-21, 03:15:00,VALID,917.661,VALID,0,VALID,96.16,VALID,0,VALID,18.2619,VALID,37,VALID,0.238672,
2004-05-21, 03:16:00,VALID,917.68,VALID,0,VALID,96.3825,VALID,-0.0169808,VALID,18.1807,VALID,35,VALID,0.0541548,
2004-05-21, 03:17:00,VALID,917.705,VALID,0,VALID,97.1035,VALID,-0.0169808,VALID,18.2063,VALID,34,VALID,0.148638,
2004-05-21, 03:18:00,VALID,917.743,VALID,0,VALID,96.8429,VALID,0,VALID,18.1777,VALID,34,VALID,0.000177557,
2004-05-21, 03:19:00,VALID,917.756,VALID,0,VALID,97.5092,VALID,-0.0169808,VALID,18.2326,VALID,34,VALID,0.269531,
2004-05-21, 03:20:00,VALID,917.748,VALID,0,VALID,97.6529,VALID,-0.0339617,VALID,18.3333,VALID,34,VALID,0.0129573,
2004-05-21, 03:21:00,VALID,917.72,VALID,0,VALID,97.2421,VALID,-0.0509425,VALID,18.3391,VALID,34,VALID,0,
2004-05-21, 03:22:00,VALID,917.695,VALID,0,VALID,96.7297,VALID,0.0169808,VALID,18.3167,VALID,34,VALID,0,
2004-05-21, 03:23:00,VALID,917.678,VALID,0,VALID,96.661,VALID,-0.0339617,VALID,18.3202,VALID,34,VALID,0,
2004-05-21, 03:24:00,VALID,917.673,VALID,0,VALID,96.4576,VALID,0,VALID,18.284,VALID,34,VALID,0,
2004-05-21, 03:25:00,VALID,917.684,VALID,0,VALID,96.5059,VALID,-0.0169808,VALID,18.2686,VALID,34,VALID,0.165251,
2004-05-21, 03:26:00,VALID,917.68,VALID,0,VALID,96.7945,VALID,-0.0169808,VALID,18.2492,VALID,112,VALID,0.617374,
2004-05-21, 03:27:00,VALID,917.65,VALID,0,VALID,97.2828,VALID,0,VALID,18.2847,VALID,193,VALID,0.481827,
2004-05-21, 03:28:00,VALID,917.615,VALID,0,VALID,97.382,VALID,0,VALID,18.3036,VALID,193,VALID,0.412202,
2004-05-21, 03:29:00,VALID,917.59,VALID,0,VALID,97.5422,VALID,0.0169808,VALID,18.32,VALID,193,VALID,0.171148,
2004-05-21, 03:30:00,VALID,917.572,VALID,0,VALID,97.5486,VALID,0.0169808,VALID,18.3356,VALID,193,VALID,0.0457589,
2004-05-21, 03:31:00,VALID,917.552,VALID,0,VALID,97.3451,VALID,0,VALID,18.3622,VALID,193,VALID,0.162287,
2004-05-21, 03:32:00,VALID,917.557,VALID,0,VALID,97.3426,VALID,0,VALID,18.3587,VALID,193,VALID,0.118963,
2004-05-21, 03:33:00,VALID,917.552,VALID,0,VALID,97.6185,VALID,0,VALID,18.3808,VALID,193,VALID,0.00609756,
2004-05-21, 03:34:00,VALID,917.543,VALID,0,VALID,97.8233,VALID,-0.0509425,VALID,18.42,VALID,193,VALID,0,
2004-05-21, 03:35:00,VALID,917.517,VALID,0,VALID,97.8182,VALID,-0.101885,VALID,18.4897,VALID,193,VALID,0,